User: anonymous   Login
Location: Kott?ru
(16.6209°N, 80.6208°E)
Time: 15:13:05
(UTC+00:00)
Language:

CZ-2D R/B - Orbit

View from above orbital plane
View from above orbital plane
View from above satellite
View from above satellite

Ground track
Ground track

The orbit data is extracted from the following two-line orbital elements,

1 28738U 05024B   21173.67000250  .00000492  00000-0  31872-4 0  9993
2 28738  97.3601 189.5194 0011457 352.4663   7.6394 15.12431886877358
Epoch (UTC): 22 June 2021 16:04:48
Eccentricity: 0.0011457
inclination: 97.3601°
perigee height: 521 km
apogee height: 537 km
right ascension of ascending node: 189.5194°
argument of perigee: 352.4663°
revolutions per day: 15.12431886
mean anomaly at epoch: 7.6394°
orbit number at epoch: 87735

The dashed part of the orbit path shows where the satellite is in the earth's shadow,  

DLR